Tracking 23758 objects as of 27-Oct-2021
HD Live streaming from Space Station
objects crossing your sky now

FREGAT R/B

Track FREGAT R/B now!


NORAD ID: 41551
Int'l Code: 2016-030C
Perigee: 23,508.8 km
Apogee: 23,625.2 km
Inclination: 55.9 °
Period: 859.2 minutes
Semi major axis: 29937 km
RCS: Unknown
Launch date: May 24, 2016
Source: Commonwealth of Independent States (former USSR) (CIS)
Launch site: FRENCH GUIANA (FRGUI)

Note: This is a ROCKET BODY
aabbcc
Your satellite tracking list
Your tracking list is empty




NASA's NSSDC Master Catalog

Two Line Element Set (TLE):
1 41551U 16030C   21299.62191833  .00000005  00000-0  00000-0 0  9997
2 41551  55.8818 270.1621 0019453 228.0896 131.7250  1.67597946 33222
Source of the keplerian elements: AFSPC